Tracking 22287 objects as of 27-Jan-2021
HD Live streaming from Space Station
objects crossing your sky now

STARLINK-1343

Track STARLINK-1343 now!
10-day predictions
STARLINK-1343 is classified as:


NORAD ID: 45584
Int'l Code: 2020-025BF
Perigee: 554.2 km
Apogee: 556.1 km
Inclination: 53.0 °
Period: 95.6 minutes
Semi major axis: 6926 km
RCS: Unknown
Launch date: April 22, 2020
Source: United States (US)
Launch site: AIR FORCE EASTERN TEST RANGE (AFETR)
aabbcc
Your satellite tracking list
Your tracking list is empty




NASA's NSSDC Master Catalog

Two Line Element Set (TLE):
1 45584U 20025BF  21027.12335997  .00046797  00000-0  31621-2 0  9994
2 45584  53.0012 180.4361 0001419 104.5292 255.5853 15.06135801 43426
Source of the keplerian elements: AFSPC